WB4FAY-4 Weather Reports


Display with metric or nautical units.
time (UTC)temp
F
wind
direction
speed
MPH
gust
MPH
rain 1hr
in
rain 24hr
in
rain mn
in
humidity
%
barometer
mb
20190118005616 50 248 1.0 4.0 0.00 0.09 0.10 96 1020.4
20190118005117 50 202 0.0 3.0 0.00 0.09 0.10 96 1020.5
20190118004617 50 277 1.0 3.0 0.00 0.09 0.10 96 1020.5
20190118003617 50 191 2.0 2.0 0.00 0.09 0.10 96 1020.5
20190118003117 50 192 1.0 4.0 0.00 0.09 0.10 96 1020.4
20190118002117 50 224 1.0 3.0 0.00 0.09 0.10 96 1020.3
20190118001617 49 196 0.0 6.0 0.00 0.09 0.10 96 1020.3
20190118001117 49 230 2.0 4.0 0.00 0.09 0.10 96 1020.2
20190118000617 50 227 1.0 6.0 0.00 0.09 0.10 96 1020.2
20190118000118 50 220 3.0 3.0 0.00 0.09 0.10 96 1020.2
20190117235617 49 185 0.0 5.0 0.00 0.09 0.10 96 1020.1
20190117235117 49 185 4.0 4.0 0.00 0.09 0.10 96 1020.0
20190117234617 49 229 2.0 5.0 0.00 0.09 0.10 96 1020.1
20190117234116 49 185 0.0 3.0 0.00 0.09 0.10 96 1020.1
20190117233617 49 229 0.0 4.0 0.00 0.09 0.10 96 1020.1
20190117233117 49 258 0.0 3.0 0.00 0.09 0.10 96 1020.1
20190117232617 49 195 2.0 2.0 0.00 0.09 0.10 96 1020.1
20190117232118 49 0 0.0 0.0 0.00 0.09 0.10 96 1020.0
20190117231617 49 0 0.0 0.0 0.00 0.09 0.10 96 1020.0
20190117231117 50 227 0.0 2.0 0.00 0.09 0.10 96 1020.1
20190117230617 50 236 1.0 1.0 0.00 0.09 0.09 96 1020.0
20190117230117 49 0 0.0 0.0 0.00 0.09 0.09 96 1020.1
20190117225617 50 0 0.0 0.0 0.00 0.09 0.09 96 1020.1
20190117225117 50 0 0.0 0.0 0.00 0.09 0.09 96 1020.0
20190117224617 50 0 0.0 0.0 0.00 0.09 0.09 96 1019.9
20190117224117 50 0 0.0 0.0 0.00 0.09 0.09 96 1020.0
20190117223617 50 0 0.0 0.0 0.00 0.09 0.09 96 1020.0
20190117223117 50 0 0.0 0.0 0.00 0.09 0.09 95 1020.1
20190117222617 50 0 0.0 0.0 0.00 0.09 0.09 95 1020.1
20190117222117 50 0 0.0 0.0 0.00 0.09 0.09 95 1020.1
20190117221617 50 229 0.0 1.0 0.00 0.09 0.08 95 1020.1
20190117221117 50 250 0.0 2.0 0.00 0.09 0.08 95 1020.0
20190117220117 50 162 1.0 3.0 0.00 0.09 0.08 95 1019.9
20190117215616 50 202 1.0 3.0 0.00 0.09 0.08 95 1019.9
20190117215117 50 230 1.0 3.0 0.00 0.09 0.08 95 1019.9
20190117214617 50 215 3.0 2.0 0.00 0.09 0.08 95 1019.9
20190117214117 50 224 2.0 4.0 0.00 0.09 0.08 95 1019.9
20190117213617 50 206 0.0 3.0 0.00 0.09 0.08 95 1019.9
20190117213117 50 248 0.0 4.0 0.00 0.09 0.08 95 1020.0
20190117212617 50 212 3.0 3.0 0.00 0.09 0.08 95 1020.1
20190117212116 50 198 2.0 4.0 0.00 0.09 0.08 95 1020.2
20190117211617 50 0 0.0 0.0 0.00 0.09 0.08 95 1020.2
20190117211117 50 0 0.0 0.0 0.00 0.09 0.08 95 1020.3
20190117210617 50 340 0.0 1.0 0.00 0.09 0.08 95 1020.3
20190117210116 50 346 0.0 5.0 0.00 0.09 0.08 95 1020.4
20190117205617 50 3 2.0 4.0 0.00 0.09 0.08 95 1020.6
20190117205117 50 250 2.0 3.0 0.00 0.09 0.08 95 1020.3
20190117204617 50 184 0.0 6.0 0.00 0.09 0.08 95 1020.0
20190117204117 50 243 2.0 4.0 0.00 0.09 0.08 94 1019.9
20190117203617 50 261 0.0 5.0 0.00 0.09 0.08 95 1019.9
20190117203117 50 171 2.0 5.0 0.00 0.09 0.08 94 1019.9
20190117202617 50 233 4.0 5.0 0.00 0.09 0.08 94 1019.9
20190117202117 50 195 0.0 9.0 0.00 0.09 0.07 94 1020.0
20190117201617 50 182 3.0 9.0 0.00 0.09 0.07 94 1020.0
20190117201117 50 200 4.0 10.0 0.00 0.09 0.07 94 1020.0
20190117200617 50 193 9.0 7.0 0.00 0.09 0.07 95 1020.1
20190117200117 50 200 3.0 8.0 0.00 0.09 0.07 95 1020.1
20190117195617 50 210 2.0 5.0 0.00 0.09 0.07 95 1020.1
20190117195117 50 210 2.0 7.0 0.00 0.09 0.07 95 1020.1
20190117194617 50 271 3.0 7.0 0.00 0.09 0.07 95 1020.2
20190117194117 50 195 6.0 8.0 0.00 0.09 0.07 95 1020.2
20190117193617 50 223 6.0 5.0 0.00 0.09 0.07 95 1020.1
20190117193117 50 186 1.0 7.0 0.00 0.09 0.07 96 1020.1
20190117192617 50 196 2.0 7.0 0.00 0.09 0.07 96 1020.0
20190117192117 50 165 0.0 6.0 0.00 0.09 0.07 96 1020.1
20190117191617 49 182 3.0 9.0 0.00 0.09 0.07 96 1020.2
20190117191116 49 219 3.0 9.0 0.00 0.09 0.07 96 1020.4
20190117190618 49 189 6.0 8.0 0.00 0.09 0.07 96 1020.4
20190117190117 49 227 7.0 7.0 0.00 0.09 0.07 96 1020.6
20190117185617 49 236 3.0 6.0 0.00 0.09 0.07 96 1020.7
20190117185117 49 216 5.0 6.0 0.00 0.09 0.07 96 1020.8
20190117184617 49 227 3.0 7.0 0.00 0.09 0.07 96 1020.8
20190117184117 49 237 2.0 5.0 0.00 0.09 0.07 96 1020.8
20190117183616 48 216 2.0 7.0 0.00 0.09 0.07 96 1021.0
20190117183117 48 195 2.0 8.0 0.00 0.09 0.07 96 1021.1
20190117182617 48 192 2.0 9.0 0.00 0.09 0.07 96 1021.5
20190117182117 48 199 3.0 5.0 0.00 0.09 0.07 96 1021.6
20190117181617 48 178 3.0 4.0 0.00 0.09 0.07 96 1021.6
20190117181117 48 226 2.0 7.0 0.00 0.09 0.07 96 1021.7
20190117180617 48 200 4.0 6.0 0.00 0.09 0.07 96 1021.8
20190117180117 48 192 4.0 6.0 0.00 0.09 0.07 96 1022.0
20190117175617 48 222 5.0 8.0 0.00 0.09 0.07 96 1022.0
20190117175117 48 186 6.0 7.0 0.00 0.09 0.07 96 1022.4
20190117174617 48 233 3.0 6.0 0.00 0.09 0.07 96 1022.5
20190117174117 48 185 6.0 6.0 0.00 0.09 0.07 96 1022.5
20190117173617 48 237 5.0 7.0 0.00 0.09 0.07 96 1022.5
20190117173117 48 253 2.0 7.0 0.00 0.09 0.07 96 1022.6
20190117172617 47 236 4.0 7.0 0.00 0.09 0.06 95 1022.8
20190117172116 47 219 0.0 6.0 0.00 0.09 0.06 96 1023.0
20190117171117 47 224 5.0 4.0 0.00 0.09 0.06 96 1023.0
20190117170617 47 243 2.0 4.0 0.00 0.09 0.06 96 1023.3
20190117165617 46 256 2.0 3.0 0.00 0.09 0.06 96 1023.2
20190117165117 46 251 1.0 4.0 0.00 0.09 0.06 96 1023.3
20190117164617 46 202 1.0 5.0 0.00 0.09 0.06 96 1023.4
20190117164117 46 230 1.0 3.0 0.00 0.09 0.06 96 1023.4
20190117163617 45 275 1.0 5.0 0.00 0.09 0.06 96 1023.5
20190117163117 45 258 0.0 4.0 0.00 0.09 0.06 96 1023.6
20190117162617 45 268 4.0 3.0 0.00 0.09 0.06 95 1023.7
20190117162117 45 196 2.0 5.0 0.00 0.09 0.06 95 1023.8
20190117161617 45 250 2.0 3.0 0.00 0.09 0.06 95 1023.8
20190117161117 45 265 2.0 2.0 0.00 0.09 0.06 95 1023.9
20190117160617 45 196 1.0 5.0 0.00 0.09 0.06 95 1023.8
20190117160117 45 188 2.0 6.0 0.00 0.09 0.06 95 1023.8
20190117155117 45 304 0.0 3.0 0.00 0.09 0.06 95 1024.2
20190117154617 45 236 1.0 3.0 0.00 0.09 0.06 95 1024.2
20190117154117 44 220 2.0 2.0 0.00 0.09 0.06 95 1024.0
20190117153617 44 192 1.0 3.0 0.00 0.09 0.06 95 1024.2
20190117153117 44 240 0.0 1.0 0.00 0.09 0.06 95 1023.9
20190117152617 43 243 1.0 2.0 0.00 0.09 0.06 95 1023.9
20190117152117 43 179 0.0 4.0 0.00 0.09 0.06 95 1024.0
20190117151617 43 226 2.0 5.0 0.00 0.09 0.06 94 1023.9
20190117151117 43 229 3.0 3.0 0.00 0.09 0.06 94 1023.8
20190117150617 43 302 0.0 2.0 0.00 0.09 0.06 94 1023.9
20190117150117 43 0 0.0 0.0 0.00 0.09 0.06 94 1024.2
20190117145617 43 0 0.0 0.0 0.00 0.09 0.06 93 1024.3
20190117145117 43 0 0.0 0.0 0.00 0.09 0.05 93 1024.3
20190117144617 43 0 0.0 0.0 0.00 0.09 0.05 92 1024.2
20190117144118 43 0 0.0 0.0 0.00 0.09 0.04 91 1024.3
20190117143117 43 247 0.0 2.0 0.00 0.09 0.01 91 1024.2
20190117142617 43 253 0.0 2.0 0.00 0.09 0.00 91 1024.2
20190117141617 42 0 0.0 0.0 0.00 0.09 0.00 92 1024.0
20190117141117 42 0 0.0 0.0 0.00 0.09 0.00 92 1023.9
20190117140617 42 0 0.0 0.0 0.00 0.09 0.00 92 1023.6
20190117140116 42 0 0.0 0.0 0.00 0.09 0.00 92 1023.5
20190117135617 41 0 0.0 0.0 0.00 0.09 0.00 92 1023.4
20190117135116 41 0 0.0 0.0 0.00 0.09 0.00 92 1023.3
20190117134617 41 0 0.0 0.0 0.00 0.09 0.00 92 1023.0
20190117134117 41 0 0.0 0.0 0.00 0.09 0.00 92 1023.0
20190117133617 41 0 0.0 0.0 0.00 0.09 0.00 92 1022.8
20190117133117 41 0 0.0 0.0 0.00 0.09 0.00 92 1022.9
20190117132617 41 0 0.0 0.0 0.00 0.09 0.00 92 1022.8
20190117132117 41 0 0.0 0.0 0.00 0.09 0.00 92 1022.8
20190117131616 41 0 0.0 0.0 0.00 0.09 0.00 92 1022.7
20190117131117 41 0 0.0 0.0 0.00 0.09 0.00 92 1022.8
20190117130617 40 0 0.0 0.0 0.00 0.09 0.00 92 1022.9
20190117130117 40 0 0.0 0.0 0.00 0.09 0.00 92 1022.9
20190117125616 40 0 0.0 0.0 0.00 0.09 0.00 92 1023.0
20190117125117 40 0 0.0 0.0 0.00 0.09 0.00 92 1022.7
20190117124617 40 0 0.0 0.0 0.00 0.09 0.00 92 1022.8
20190117124117 40 0 0.0 0.0 0.00 0.09 0.00 92 1022.9
20190117123616 40 0 0.0 0.0 0.00 0.09 0.00 92 1022.9
20190117123118 40 0 0.0 0.0 0.00 0.09 0.00 92 1022.8
20190117122116 40 137 0.0 1.0 0.00 0.09 0.00 92 1022.6
20190117121117 40 107 2.0 4.0 0.00 0.09 0.00 93 1022.5
20190117120617 40 116 3.0 4.0 0.00 0.09 0.00 93 1022.3
20190117120118 40 137 1.0 3.0 0.00 0.09 0.00 93 1022.7
20190117115617 40 134 2.0 2.0 0.00 0.09 0.00 93 1022.9
20190117115117 39 0 0.0 0.0 0.00 0.09 0.00 93 1023.1
20190117114617 39 0 0.0 0.0 0.00 0.09 0.00 93 1023.0
20190117114116 39 0 0.0 0.0 0.00 0.09 0.00 93 1023.1
20190117113117 40 0 0.0 0.0 0.00 0.09 0.00 92 1023.1
20190117112617 40 0 0.0 0.0 0.00 0.09 0.00 91 1022.9
20190117112117 40 76 0.0 2.0 0.00 0.09 0.00 91 1022.7
20190117111617 40 69 0.0 2.0 0.00 0.09 0.00 92 1022.5
20190117111116 40 64 1.0 3.0 0.00 0.09 0.00 92 1022.4
20190117110617 40 75 1.0 3.0 0.00 0.09 0.00 92 1022.4
20190117110117 40 102 2.0 4.0 0.00 0.09 0.00 93 1022.4
20190117105117 40 92 2.0 6.0 0.00 0.09 0.00 93 1022.6
20190117104617 40 0 5.0 0.0 0.00 0.09 0.00 94 1022.6
20190117104117 39 0 0.0 0.0 0.00 0.09 0.00 94 1022.7
20190117103617 39 0 0.0 0.0 0.00 0.09 0.00 94 1022.9
20190117103117 39 0 0.0 0.0 0.00 0.09 0.00 94 1023.0
20190117102617 39 0 0.0 0.0 0.00 0.09 0.00 94 1023.0
20190117102117 39 0 0.0 0.0 0.00 0.09 0.00 94 1023.1
20190117101617 39 0 0.0 0.0 0.00 0.09 0.00 94 1023.3
20190117101117 38 0 0.0 0.0 0.00 0.09 0.00 94 1023.3
20190117100617 38 0 0.0 0.0 0.00 0.09 0.00 94 1023.3
20190117100117 38 0 0.0 0.0 0.00 0.09 0.00 93 1023.3
20190117095617 38 0 0.0 0.0 0.00 0.09 0.00 93 1023.2
20190117095116 38 0 0.0 0.0 0.00 0.09 0.00 93 1023.4
20190117094617 38 0 0.0 0.0 0.00 0.09 0.00 93 1023.3
20190117094117 38 0 0.0 0.0 0.00 0.09 0.00 93 1023.5
20190117093617 39 0 0.0 0.0 0.00 0.09 0.00 93 1023.6
20190117093116 39 65 0.0 4.0 0.00 0.09 0.00 93 1023.6
20190117092617 39 102 0.0 5.0 0.00 0.09 0.00 93 1023.6
20190117092117 39 89 3.0 4.0 0.00 0.09 0.00 93 1023.8
20190117091617 39 55 2.0 4.0 0.00 0.09 0.00 93 1023.8
20190117091117 39 62 3.0 5.0 0.00 0.09 0.00 94 1023.9
20190117090617 39 104 2.0 4.0 0.00 0.09 0.00 94 1023.9
20190117090117 38 78 3.0 2.0 0.00 0.09 0.00 94 1024.0
20190117085617 38 73 1.0 3.0 0.00 0.09 0.00 94 1024.0
20190117085116 38 114 1.0 4.0 0.00 0.09 0.00 95 1024.0
20190117084117 38 104 0.0 3.0 0.00 0.09 0.00 94 1024.3
20190117083617 38 95 1.0 3.0 0.00 0.09 0.00 95 1024.3
20190117083117 37 82 1.0 3.0 0.00 0.09 0.00 95 1024.2
20190117082117 37 34 1.0 3.0 0.00 0.09 0.00 95 1024.5
20190117081617 37 65 1.0 3.0 0.00 0.09 0.00 95 1024.6
20190117080617 37 0 0.0 0.0 0.00 0.09 0.00 95 1024.6
20190117080117 37 0 0.0 0.0 0.00 0.09 0.00 95 1024.7
20190117075616 37 0 0.0 0.0 0.00 0.09 0.00 95 1024.7
20190117075117 37 83 0.0 4.0 0.00 0.09 0.00 95 1024.7
20190117074617 37 68 2.0 2.0 0.00 0.09 0.00 95 1024.7
20190117073616 37 0 0.0 0.0 0.00 0.09 0.00 94 1024.6
20190117072617 37 0 0.0 0.0 0.00 0.09 0.00 94 1024.7
20190117072117 37 0 0.0 0.0 0.00 0.09 0.00 94 1024.7
20190117071617 37 0 0.0 0.0 0.00 0.09 0.00 94 1024.7
20190117071117 37 0 0.0 0.0 0.00 0.09 0.00 94 1024.7
20190117070617 37 89 0.0 1.0 0.00 0.09 0.00 94 1024.8
20190117070117 37 93 1.0 1.0 0.00 0.09 0.00 94 1024.8
20190117065616 37 0 1.0 0.0 0.00 0.09 0.00 94 1024.7
20190117065117 37 0 0.0 0.0 0.00 0.09 0.00 94 1024.8
20190117064617 37 0 0.0 0.0 0.00 0.09 0.00 94 1024.9
20190117064117 37 0 0.0 0.0 0.00 0.09 0.00 94 1024.9
20190117063117 37 0 0.0 0.0 0.00 0.09 0.00 93 1024.9
20190117062617 38 0 0.0 0.0 0.00 0.09 0.00 93 1024.8
20190117061617 38 0 0.0 0.0 0.00 0.09 0.00 93 1024.8
20190117061117 38 0 0.0 0.0 0.00 0.09 0.00 93 1024.7
20190117060617 38 0 0.0 0.0 0.00 0.09 0.00 93 1024.7
20190117060117 38 0 0.0 0.0 0.00 0.09 0.00 92 1024.6
20190117055617 38 0 0.0 0.0 0.00 0.00 0.09 92 1024.6
20190117055117 38 0 0.0 0.0 0.00 0.00 0.09 92 1024.5
20190117054617 38 0 0.0 0.0 0.00 0.00 0.09 92 1024.5
20190117054117 38 0 0.0 0.0 0.00 0.00 0.09 92 1024.6
20190117053617 38 0 0.0 0.0 0.00 0.00 0.09 92 1024.7
20190117053117 38 0 0.0 0.0 0.00 0.00 0.09 91 1024.7
20190117052617 38 0 0.0 0.0 0.00 0.00 0.09 91 1024.6
20190117052117 38 0 0.0 0.0 0.00 0.00 0.09 91 1024.6
20190117051617 38 0 0.0 0.0 0.00 0.00 0.09 91 1024.6
20190117051117 39 0 0.0 0.0 0.00 0.00 0.09 90 1024.6
20190117050616 39 0 0.0 0.0 0.00 0.00 0.09 90 1024.7
20190117050117 39 0 0.0 0.0 0.00 0.00 0.09 90 1024.6
20190117045617 39 0 0.0 0.0 0.00 0.00 0.09 90 1024.7
20190117045117 39 0 0.0 0.0 0.00 0.00 0.09 89 1024.6
20190117044617 39 0 0.0 0.0 0.00 0.00 0.09 89 1024.6
20190117044117 39 0 0.0 0.0 0.00 0.00 0.09 89 1024.6
20190117043617 39 0 0.0 0.0 0.00 0.00 0.09 89 1024.6
20190117043117 40 0 0.0 0.0 0.00 0.00 0.09 89 1024.7
20190117042617 40 0 0.0 0.0 0.00 0.00 0.09 89 1024.7
20190117042117 40 0 0.0 0.0 0.00 0.00 0.09 89 1024.7
20190117041617 40 0 0.0 0.0 0.00 0.00 0.09 1023.8
20190117041117 40 0 0.0 0.0 0.00 0.00 0.09 1023.9
20190117040617 40 0 0.0 0.0 0.00 0.00 0.06 1024.0
20190117040117 40 0 0.0 0.0 0.00 0.00 0.05 1023.8
20190117035617 40 0 0.0 0.0 0.00 0.00 0.04 1024.2
20190117035117 40 0 0.0 0.0 0.00 0.00 0.03 1024.3
20190117034617 40 0 0.0 0.0 0.00 0.00 0.02 88 1025.1
20190117034117 41 0 0.0 0.0 0.00 0.00 0.02 1024.2
20190117033617 41 0 0.0 0.0 0.00 0.00 0.01 1024.0
20190117033117 40 0 0.0 0.0 0.00 0.00 0.01 88 1024.9
20190117032617 41 0 0.0 0.0 0.00 0.00 0.01 88 1024.9
20190117032117 41 0 0.0 0.0 0.00 0.00 0.01 88 1024.9
20190117031617 41 0 0.0 0.0 0.00 0.00 0.01 88 1024.9
20190117031117 41 0 0.0 0.0 0.00 0.00 0.01 87 1024.9
20190117030617 41 0 0.0 0.0 0.00 0.00 0.01 87 1024.8
20190117030117 41 0 0.0 0.0 0.00 0.00 0.01 87 1024.7
20190117025617 41 0 0.0 0.0 0.00 0.00 0.01 86 1024.6
20190117025117 41 0 0.0 0.0 0.00 0.00 0.01 86 1024.7
20190117024617 41 0 0.0 0.0 0.00 0.00 0.01 86 1024.6
20190117024117 41 0 0.0 0.0 0.00 0.00 0.01 86 1024.6
20190117023617 41 0 0.0 0.0 0.00 0.00 0.01 86 1024.7
20190117023117 41 0 0.0 0.0 0.00 0.00 0.01 86 1024.7
20190117022616 42 0 0.0 0.0 0.00 0.00 0.01 86 1024.7
20190117022117 42 0 0.0 0.0 0.00 0.00 0.01 85 1024.8
20190117021632 42 0 0.0 0.0 0.00 0.00 0.01 85 1024.8
20190117021116 42 0 0.0 0.0 0.00 0.00 0.01 85 1024.8
20190117020617 42 0 0.0 0.0 0.00 0.00 0.01 84 1024.7
20190117020117 42 0 0.0 0.0 0.00 0.00 0.01 84 1024.7
20190117015617 42 0 0.0 0.0 0.00 0.00 0.01 83 1024.6
20190117015117 42 0 0.0 0.0 0.00 0.00 0.01 83 1024.6
20190117014117 43 0 0.0 0.0 0.00 0.00 0.01 83 1024.7
20190117013617 43 0 0.0 0.0 0.00 0.00 0.01 82 1024.8
20190117013116 43 0 0.0 0.0 0.00 0.00 0.01 82 1024.8
20190117012617 43 0 0.0 0.0 0.00 0.00 0.01 81 1024.8
20190117012117 44 0 0.0 0.0 0.00 0.00 0.01 81 1024.7
20190117011616 44 0 0.0 0.0 0.00 0.00 0.01 80 1024.6
20190117011117 44 0 0.0 0.0 0.00 0.00 0.01 80 1024.5
20190117010617 44 0 0.0 0.0 0.00 0.00 0.01 79 1024.5